Location: Bremen
(53.0793°N, 8.8017°E)
Time: 23:56:39
(UTC+02:00)

Altair - Pass Details

Date: 16 April 2024
Orbit: 1501 x 1682 km, 47.2° (Epoch: 19 May)

Event Time Altitude Azimuth Distance (km) Brightness Sun altitude
Rises 19:07:32 0° 177° (S) 4,908 10.1 10.9°
Reaches altitude 10° 19:12:44 10° 155° (SSE) 3,903 9.4 10.1°
Maximum altitude 19:17:25 14° 126° (SE) 3,531 9.0 9.4°
Drops below altitude 10° 19:22:02 10° 98° (E) 3,853 9.0 8.7°
Sets 19:27:03 0° 76° (ENE) 4,806 9.5 8.0°
